Tracking 28926 objects as of 23-May-2024
HD Live streaming from Space Station
objects crossing your sky now

STARLINK-4415

Track STARLINK-4415 now!
10-day predictions
STARLINK-4415 is classified as:


NORAD ID: 53465
Int'l Code: 2022-099A
Perigee: 568.7 km
Apogee: 571.5 km
Inclination: 97.7 °
Period: 95.9 minutes
Semi major axis: 6941 km
RCS: Unknown
Launch date: August 12, 2022
Source: United States (US)
Launch site: AIR FORCE WESTERN TEST RANGE (AFWTR)
Your satellite tracking list
Your tracking list is empty




NASA's NSSDC Master Catalog

Two Line Element Set (TLE):
1 53465U 22099A   24144.33490965  .00001580  00000-0  12753-3 0  9994
2 53465  97.6547 265.5394 0002012  92.5176 267.6278 15.01262933 97660
Source of the keplerian elements: AFSPC